Thermal, CA

4:28 PM PDT on April 30, 2017 (GMT -0700)
Desert Resorts Regional

Weather History for KTRM - December, 2011

Change the Weather History Date:

Sunday, December 4, 2011

  Actual Average Record
Temperature  
Mean Temperature 49 °F 54 °F  
Max Temperature 68 °F 72 °F 85 °F (1988)
Min Temperature 29 °F 37 °F 25 °F (2006)
Degree Days  
Heating Degree Days 16 11  
Month to date heating degree days 53 42  
Since 1 July heating degree days 267 209  
Cooling Degree Days 0 0  
Month to date cooling degree days 0 0  
Year to date cooling degree days 3797 3686  
Moisture  
Dew Point 15 °F    
Average Humidity 28    
Maximum Humidity 47    
Minimum Humidity 8    
Precipitation  
Precipitation 0.00 in 0.01 in 0.53 in (1974)
Month to date precipitation 0.00 0.04  
Year to date precipitation 1.84 2.89  
Since 1 July precipitation 0.92  
Snow  
Snow 0.00 in - - ()
Month to date snowfall 0.0  
Year to date snowfall 0.0  
Snow Depth 0.00 in    
Sea Level Pressure  
Sea Level Pressure 30.15 in    
Wind  
Wind Speed 3 mph (North)    
Max Wind Speed 12 mph    
Max Gust Speed 15 mph    
Visibility 10 miles    
Events      
T = Trace of Precipitation, MM = Missing Value Source: NWS Daily Summary

Daily Weather History Graph

Daily Weather History Graph

Search for Another Location

Airport or City:

Trip Planner

Search our weather history database for the weather conditions in past years. The results will help you decide how hot, cold, wet, or windy it might be!

Date:

Astronomy

Dec. 04, 2011 Rise Set
Actual Time 6:33 AM PST 4:36 PM PST
Civil Twilight 6:06 AM PST 5:03 PM PST
Nautical Twilight 5:35 AM PST 5:34 PM PST
Astronomical Twilight 5:05 AM PST 6:04 PM PST
Moon 12:57 PM PST (12/4) 1:15 AM PST (12/4)
Length of Visible Light 10h 57m
Length of Day
10h 02m
Waxing Gibbous, 72% of the Moon is Illuminated
Dec 4
Waxing Gibbous
Dec 10
Full
Dec 17
Last Quarter
Dec 24
New
Dec 31
First Quarter

Hourly Weather History & Observations

Time (PST) Temp. Windchill Dew Point Humidity Pressure Visibility Wind Dir Wind Speed Gust Speed Precip Events Conditions
12:52 AM 37.0 °F - 12.9 °F 37% 30.19 in 10.0 mi Calm Calm - N/A   Clear
1:52 AM 32.0 °F 27.5 °F 12.9 °F 45% 30.19 in 10.0 mi South 4.6 mph - N/A   Clear
2:52 AM 34.0 °F 31.0 °F 14.0 °F 44% 30.20 in 10.0 mi North 3.5 mph - N/A   Clear
3:52 AM 39.0 °F 35.7 °F 12.0 °F 33% 30.19 in 10.0 mi North 4.6 mph - N/A   Clear
4:52 AM 35.1 °F 32.2 °F 14.0 °F 42% 30.20 in 10.0 mi NNW 3.5 mph - N/A   Clear
5:52 AM 34.0 °F - 12.9 °F 42% 30.22 in 10.0 mi Calm Calm - N/A   Clear
6:52 AM 30.9 °F 27.5 °F 12.9 °F 47% 30.22 in 10.0 mi Variable 3.5 mph - N/A   Clear
7:52 AM 44.1 °F 41.5 °F 14.0 °F 30% 30.22 in 10.0 mi NE 4.6 mph - N/A   Clear
8:52 AM 57.0 °F - 10.9 °F 16% 30.22 in 10.0 mi North 4.6 mph - N/A   Clear
9:52 AM 60.1 °F - 10.9 °F 14% 30.22 in 10.0 mi NNW 4.6 mph - N/A   Clear
10:52 AM 62.1 °F - 12.0 °F 14% 30.19 in 10.0 mi Calm Calm - N/A   Clear
11:52 AM 64.0 °F - 3.0 °F 9% 30.16 in 10.0 mi Calm Calm - N/A   Clear
12:52 PM 64.9 °F - 3.9 °F 9% 30.12 in 10.0 mi Variable 5.8 mph - N/A   Clear
1:52 PM 66.0 °F - 5.0 °F 9% 30.09 in 10.0 mi Variable 3.5 mph - N/A   Clear
2:52 PM 66.9 °F - 6.1 °F 9% 30.07 in 10.0 mi Calm Calm - N/A   Clear
3:52 PM 61.0 °F - 19.9 °F 21% 30.06 in 10.0 mi SE 6.9 mph - N/A   Clear
6:52 PM 48.9 °F - 25.0 °F 39% 30.08 in 10.0 mi Calm Calm - N/A   Clear
7:52 PM 42.1 °F 38.4 °F 27.0 °F 55% 30.09 in 10.0 mi WSW 5.8 mph - N/A   Clear
8:52 PM 41.0 °F 38.0 °F 26.1 °F 55% 30.11 in 10.0 mi North 4.6 mph - N/A   Clear
9:52 PM 42.1 °F 39.2 °F 24.1 °F 49% 30.11 in 10.0 mi North 4.6 mph - N/A   Clear
10:52 PM 37.9 °F - 21.9 °F 53% 30.12 in 10.0 mi Calm Calm - N/A   Clear
11:52 PM 36.0 °F 33.3 °F 24.1 °F 62% 30.11 in 10.0 mi North 3.5 mph - N/A   Clear